Flag for U.S.A. Weather past 2 weeks in McAllen, Texas, U.S.A.

Now
98 °F

Passing clouds.


Feels Like: 107 °F
Forecast: 79 / 100 °F
Wind: 23 mph from Southeast

Location: Miller International Airport

Current Time: Aug 20, 2014 at 3:37:44 PM

Latest Report: Aug 20, 2014 at 2:53 PM


Visibility: 10 mi

Pressure: 29.86 "Hg

Humidity: 43%

Dew point: 72 °F

Location of McAllenLocation

Historic Weather in McAllen — Graph

°F

McAllen temperature yesterday

Maximum temperature yesterday: 99 °F (at 2:53 PM)
Minimum temperature yesterday: 78 °F (at 2:53 AM)
Average temperature yesterday: 87 °F

Past Weeks' High & Low Weather Summary

 TemperatureHumidityPressure
High104 °F (Aug 6, 2:53 PM)96% (Aug 10, 5:53 AM)30.03 "Hg (Aug 10, 5:53 AM)
Low73 °F (Aug 9, 6:53 AM)25% (Aug 6, 2:53 PM)29.78 "Hg (Aug 19, 5:53 PM)
Average87 °F65%29.93 "Hg
* Reported Aug 5 1:53 PM — Aug 20 1:53 PM, McAllen, Weather by CustomWeather, © 2014

Note: Actual official high and low records may vary slightly from our data, if they occured in-between our weather recording intervals... More about our weather records

Advertising

McAllen weather history for previous 24 hours

 ConditionsComfort  
Time TempWeatherWind HumidityBarometerVisibility
1:53 PM
Aug 20
98 °FScattered clouds.23 mph42%29.89 "Hg10 mi
12:53 PM97 °FPassing clouds.22 mph42%29.91 "Hg10 mi
11:53 AM95 °FScattered clouds.18 mph46%29.93 "Hg10 mi
10:53 AM92 °FPartly sunny.20 mph56%29.93 "Hg10 mi
9:53 AM86 °FScattered clouds.15 mph72%29.93 "Hg10 mi
8:53 AM84 °FPassing clouds.15 mph80%29.91 "Hg8 mi
7:53 AM79 °FClear.10 mph90%29.89 "Hg7 mi
6:53 AM79 °FClear.7 mph88%29.89 "Hg9 mi
5:53 AM79 °FClear.7 mph88%29.88 "Hg9 mi
4:53 AM80 °FClear.9 mph87%29.87 "Hg9 mi
3:53 AM81 °FClear.12 mph85%29.87 "Hg9 mi
2:53 AM81 °FClear.12 mph85%29.88 "Hg9 mi
1:53 AM82 °FClear.13 mph79%29.88 "Hg10 mi
12:53 AM83 °FPassing clouds.15 mph79%29.89 "Hg10 mi
11:53 PM
Aug 19
83 °FClear.13 mph79%29.88 "Hg10 mi
10:53 PM84 °FClear.16 mph72%29.88 "Hg10 mi
9:53 PM84 °FClear.14 mph70%29.86 "Hg10 mi
8:53 PM86 °FSunny.17 mph61%29.83 "Hg10 mi
7:53 PM89 °FSunny.17 mph50%29.81 "Hg10 mi
6:53 PM92 °FSunny.23 mph41%29.80 "Hg10 mi
5:53 PM95 °FSunny.20 mph43%29.78 "Hg10 mi
4:53 PM96 °FSunny.25 mph38%29.79 "Hg10 mi
3:53 PM98 °FSunny.21 mph36%29.81 "Hg10 mi
Weather by CustomWeather, © 2014

See weather overviewHow to use our weather pages